Flag for Poland Weather past 2 weeks in Rzeszów, Poland

Now
70 °F

Partly sunny.


Feels Like: 70 °F
Forecast: 59 / 93 °F
Wind: 3 mph from North

Location: Rzeszow-Jasionka

Current Time: Aug 29, 2015 at 11:25:57 AM

Latest Report: Aug 29, 2015 at 11:00 AM


Visibility: N/A

Pressure: 30.27 "Hg

Humidity: 88%

Dew point: 66 °F

Location of RzeszówLocation

Historic Weather in Rzeszów — Graph

°F

Rzeszów temperature yesterday

Maximum temperature yesterday: 91 °F (at 4:00 PM)
Minimum temperature yesterday: 63 °F (at 2:30 AM)
Average temperature yesterday: 78 °F

Past Weeks' High & Low Weather Summary

 TemperatureHumidityPressure
High91 °F (Aug 28, 4:00 PM)100% (Aug 26, 1:30 AM)30.33 "Hg (Aug 26, 1:30 AM)
Low46 °F (Aug 21, 5:00 AM)23% (Aug 19, 3:00 PM)29.77 "Hg (Aug 15, 6:00 PM)
Average69 °F55%30.05 "Hg
* Reported Aug 14 9:00 AM — Aug 29 9:30 AM, Rzeszów, Weather by CustomWeather, © 2015

Note: Actual official high and low records may vary slightly from our data, if they occured in-between our weather recording intervals... More about our weather records

Advertising

Rzeszów weather history for previous 24 hours

 ConditionsComfort  
Time TempWeatherWind HumidityBarometerVisibility
9:30 AM
Sat, Aug 29
68 °FPartly sunny.3 mph88%30.24 "HgN/A
9:00 AM66 °FPartly sunny.5 mph94%30.24 "HgN/A
8:00 AM66 °FSprinkles. Partly sunny.3 mph94%30.24 "Hg4 mi
7:30 AM68 °FPassing clouds.2 mph83%30.24 "HgN/A
7:00 AM66 °FPassing clouds.3 mph88%30.24 "HgN/A
6:30 AM66 °FClear.2 mph88%30.21 "Hg10 mi
6:00 AM66 °FClear.5 mph88%30.21 "Hg10 mi
5:30 AM68 °FPassing clouds.6 mph78%30.21 "HgN/A
5:00 AM66 °FPassing clouds.3 mph83%30.18 "HgN/A
4:30 AM66 °FClear.2 mph83%30.18 "Hg10 mi
4:00 AM64 °FClear.No wind88%30.18 "Hg10 mi
3:30 AM64 °FClear.2 mph88%30.18 "Hg10 mi
3:00 AM66 °FClear.1 mph83%30.15 "Hg10 mi
2:30 AM66 °FClear.1 mph83%30.15 "Hg10 mi
2:00 AM68 °FClear.No wind78%30.15 "Hg10 mi
1:30 AM68 °FClear.3 mph78%30.15 "Hg10 mi
1:00 AM68 °FClear.3 mph78%30.15 "Hg10 mi
12:30 AM70 °FClear.1 mph73%30.15 "Hg10 mi
12:00 AM70 °FClear.No wind73%30.12 "Hg10 mi
11:30 PM
Fri, Aug 28
73 °FClear.1 mph65%30.12 "Hg10 mi
11:00 PM73 °FClear.2 mph65%30.12 "Hg10 mi
10:30 PM75 °FClear.5 mph61%30.09 "Hg10 mi
10:00 PM77 °FClear.6 mph54%30.09 "Hg10 mi
9:30 PM79 °FPassing clouds.5 mph48%30.09 "HgN/A
9:00 PM75 °FPassing clouds.3 mph54%30.07 "HgN/A
8:30 PM77 °FClear.3 mph51%30.07 "Hg10 mi
8:00 PM82 °FSunny.6 mph37%30.04 "Hg10 mi
7:30 PM84 °FSunny.7 mph35%30.04 "Hg10 mi
7:00 PM86 °FSunny.6 mph33%30.04 "Hg10 mi
6:30 PM88 °FSunny.8 mph29%30.04 "Hg10 mi
6:00 PM90 °FSunny.9 mph27%30.04 "Hg10 mi
5:30 PM90 °FSunny.12 mph27%30.04 "Hg10 mi
5:00 PM91 °FSunny.13 mph26%30.04 "Hg10 mi
4:30 PM91 °FSunny.13 mph24%30.01 "Hg10 mi
4:00 PM91 °FSunny.14 mph26%30.01 "Hg10 mi
3:30 PM90 °FSunny.13 mph26%30.01 "Hg10 mi
3:00 PM90 °FSunny.12 mph26%30.01 "Hg10 mi
2:30 PM90 °FSunny.14 mph26%30.01 "Hg10 mi
2:00 PM90 °FSunny.14 mph26%30.04 "Hg10 mi
1:30 PM88 °FSunny.13 mph31%30.04 "Hg10 mi
1:00 PM86 °FPassing clouds.14 mph35%30.04 "HgN/A
12:30 PM86 °FSunny.12 mph40%30.04 "Hg10 mi
12:00 PM84 °FSunny.15 mph40%30.04 "Hg10 mi
11:30 AM84 °FSunny.14 mph40%30.01 "Hg10 mi
11:00 AM82 °FSunny.15 mph45%30.01 "Hg10 mi
Weather by CustomWeather, © 2015

See weather overviewHow to use our weather pages